Simultaneous Nadir Overpasses (SNOs) Predictions

Prediction of SNOs between METOP-A and NOAA-19 Satellite Orbit:

Table of predicted SNOs for the next 14.0 days since TLE Epoch: 3/2/2013
Index Date (METOP-A) Time (METOP-A) Lat,Lon (METOP-A) SZA (METOP-A ) Date (NOAA-19) Time (NOAA-19) Lat,Lon (NOAA-19) SZA (NOAA-19 ) Distance(km) Time Diff (sec)
1 03/10/2013 09:21:45 -73.44,-147.66 102.44 03/10/2013 09:20:31 -73.43,-147.61 102.44 2.31 74
2 03/10/2013 10:12:25 73.41, 19.60 77.52 03/10/2013 10:11:29 73.43, 19.63 77.56 3.41 56
3 03/10/2013 11:03:07 -73.42,-173.05 102.49 03/10/2013 11:02:35 -73.39,-173.04 102.51 2.95 32
4 03/10/2013 11:53:47 73.38, -5.79 77.47 03/10/2013 11:53:33 73.40, -5.80 77.50 2.09 14
5 03/10/2013 12:44:30 -73.34, 161.44 102.58 03/10/2013 12:44:39 -73.35, 161.52 102.57 2.87 9
6 03/10/2013 13:35:09 73.36, -31.19 77.42 03/10/2013 13:35:37 73.36, -31.24 77.43 1.86 28
7 03/10/2013 14:25:52 -73.32, 136.05 102.63 03/10/2013 14:26:43 -73.32, 136.08 102.64 1.18 51
8 03/10/2013 15:16:31 73.33, -56.58 77.37 03/10/2013 15:17:41 73.33, -56.68 77.36 3.01 70
9 03/10/2013 16:07:28 -72.58, 109.16 103.30 03/10/2013 16:08:34 -72.64, 112.06 103.41 96.51 66




NCC Satellite Simultaneous Nadir Overpasses (SNOs) Prediction Service
